Wind_Speed
32 36 39 43 46 49 54 55 58 59 61 62 64 64 65 65 63 60 57 56 59 62 61 62 60 59 60 63 64 65 72 73 65 58 47 39 40 42 46 47 47 49 45 39 41
38 41 43 46 51 54 56 59 60 63 66 66 66 67 67 65 65 61 63 61 60 65 66 65 67 66 66 64 68 69 76 76 65 56 52 46 44 46 49 50 49 50 48 45 43
44 47 50 53 55 57 59 61 63 63 66 69 69 69 69 68 66 66 64 66 65 65 69 70 70 73 72 70 69 73 77 69 65 58 57 54 51 49 54 55 51 50 50 49 49
46 48 51 54 56 58 60 63 68 70 69 73 75 75 73 70 68 65 69 71 72 70 68 70 73 74 76 75 71 72 72 74 69 62 62 59 55 56 58 56 52 54 53 52 53
46 51 55 59 61 63 64 67 68 70 66 63 63 64 62 61 57 55 70 74 75 77 75 74 73 74 77 76 77 78 75 73 73 66 67 65 64 62 63 59 59 58 58 53 51
57 60 63 63 65 67 67 65 70 72 65 61 59 61 62 57 53 56 62 66 72 77 77 77 76 75 79 79 80 80 80 78 75 76 72 72 70 70 66 65 63 61 56 55 51
58 61 63 65 67 68 65 67 71 71 64 62 62 68 68 61 65 64 68 63 66 70 75 76 77 77 78 79 78 81 85 84 80 77 75 74 78 76 67 68 66 65 58 55 52
58 61 64 65 68 65 64 69 72 68 66 67 72 77 75 65 65 71 74 71 70 68 70 71 75 78 77 79 79 82 85 89 83 80 79 76 81 73 76 72 70 67 60 56 52
60 64 67 68 67 66 67 71 73 70 70 74 75 72 67 62 62 65 71 73 74 73 70 71 74 74 74 78 81 82 87 88 86 84 84 83 81 74 72 74 71 69 65 59 54
62 65 67 69 67 69 70 73 74 74 72 72 68 69 64 62 63 63 65 69 72 74 75 75 74 75 75 78 86 87 85 85 87 86 83 84 86 78 72 72 70 68 67 63 59
64 67 69 69 68 71 74 76 79 78 76 70 69 66 61 59 57 59 64 67 69 73 74 72 77 79 75 76 76 76 76 78 78 76 79 83 86 81 75 73 72 72 71 69 68
64 68 70 69 69 75 78 82 81 85 84 72 69 70 65 59 48 41 52 56 61 69 72 74 74 73 73 73 73 76 76 77 76 75 78 81 87 82 79 79 76 73 73 73 73
65 69 70 69 70 75 80 79 79 81 85 70 70 51 42 43 43 38 39 44 49 57 59 68 70 70 74 73 71 74 76 73 75 72 73 78 85 81 80 78 80 79 74 73 74
67 70 71 70 72 77 80 77 77 81 82 71 49 47 25 21 25 26 30 35 44 48 46 58 58 61 65 74 72 76 70 68 71 72 76 75 83 79 77 76 74 78 78 74 72
68 70 72 74 76 78 78 77 79 79 75 46 41 24 17 23 34 21 31 32 31 38 46 41 39 40 53 65 65 71 65 70 68 72 74 75 77 85 77 80 75 77 77 78 74
68 70 72 71 76 80 77 79 78 66 52 43 20 18 18 15 24 29 28 33 21 22 25 26 19 29 29 42 55 61 63 63 64 66 74 76 71 80 78 77 78 74 70 74 76
69 71 73 73 77 78 78 78 67 48 45 38 5 14 21 27 22 24 22 20 17 18 11 14 14 21 25 28 40 59 59 50 54 59 68 68 66 76 73 71 70 70 71 70 73
71 71 70 74 77 78 79 74 56 37 38 26 15 12 27 22 22 21 15 8 4 9 12 14 10 17 18 25 32 48 56 50 45 48 49 52 61 68 64 62 63 62 65 65 68
72 69 70 74 76 78 78 61 39 38 46 20 9 16 17 17 28 15 14 4 9 8 11 14 11 16 20 24 31 49 67 55 52 42 32 45 54 55 58 58 55 55 55 57 61
72 69 70 74 74 78 72 50 29 38 44 18 13 19 24 14 19 22 16 5 12 10 8 14 16 13 5 8 34 38 46 60 55 45 31 52 49 44 42 37 36 36 41 44 45
72 71 71 73 76 75 59 35 27 36 35 15 12 20 21 22 19 19 15 10 10 11 11 15 19 12 4 3 16 36 31 47 46 56 43 18 26 28 32 30 24 26 33 38 41
73 73 73 72 75 74 50 30 33 39 21 16 14 18 21 20 18 18 17 14 10 7 13 13 13 10 4 4 9 17 35 38 46 49 32 39 29 29 34 38 36 36 33 31 35
73 72 70 71 75 70 47 28 31 30 13 10 13 15 23 22 23 19 14 12 12 10 9 13 8 8 0 1 7 11 16 25 32 30 38 33 32 21 21 20 23 25 30 27 24
74 73 69 69 74 64 45 31 27 14 8 12 13 15 22 22 21 18 16 14 15 14 13 11 6 6 2 3 2 11 16 17 21 22 24 32 34 35 36 35 33 34 33 34 33
72 71 69 71 73 55 35 25 19 5 6 15 9 16 22 25 22 17 16 15 16 14 12 11 10 4 3 3 4 5 15 18 17 18 21 23 29 33 43 42 44 45 47 45 41
71 69 66 69 69 46 29 20 14 5 9 9 11 14 21 29 29 24 24 22 17 18 16 9 12 5 5 3 5 4 10 13 11 17 13 21 18 20 26 33 36 37 42 42 35
68 65 63 66 63 42 22 12 9 6 11 15 15 16 22 30 23 27 30 23 23 23 21 6 9 11 4 2 6 5 7 8 9 10 13 17 22 25 27 29 30 29 28 30 30
Wind_Direction
302 301 299 301 301 300 300 300 298 295 294 290 285 278 276 275 272 268 264 258 258 259 256 254 250 248 246 246 248 249 250 251 254 258 256 247 246 248 252 250 244 244 238 235 239
298 298 298 297 298 299 299 299 300 299 297 294 290 284 277 275 272 267 260 257 255 256 256 253 251 248 246 245 245 245 250 252 255 254 248 241 238 242 246 247 243 242 241 233 233
304 305 303 302 301 302 303 304 306 303 299 296 293 286 280 277 272 265 260 255 253 252 254 253 250 249 247 245 246 247 249 253 253 248 245 240 236 236 244 246 248 246 243 231 230
306 305 303 305 306 306 306 307 308 306 301 298 295 290 284 279 273 270 261 254 252 252 251 251 251 248 247 247 247 248 249 246 247 245 242 239 236 235 239 245 245 246 243 239 233
307 309 310 311 310 310 310 309 310 308 306 301 295 291 284 279 277 271 266 258 252 249 249 246 246 248 247 246 245 244 245 246 244 242 241 240 235 234 234 239 244 243 245 242 237
314 313 313 313 314 310 310 307 308 307 304 299 296 291 288 283 277 268 264 263 258 252 248 248 246 244 245 245 244 244 244 243 243 241 239 239 237 236 234 234 240 244 244 246 242
313 313 314 313 312 311 310 310 309 308 306 302 297 293 289 285 277 272 266 262 260 258 253 251 249 246 244 244 244 244 243 244 241 242 242 242 239 236 237 237 237 241 242 244 246
313 313 314 313 313 310 309 311 310 309 307 304 300 296 293 284 275 268 266 264 262 259 254 252 251 248 246 244 242 242 242 241 241 242 243 243 243 240 239 239 238 241 241 240 243
316 315 315 315 314 311 311 312 312 310 309 308 305 300 295 288 279 271 264 259 259 260 259 253 250 250 248 247 244 242 241 242 241 241 244 243 243 240 238 239 237 239 242 241 239
317 316 317 316 315 314 314 314 314 313 311 311 308 301 296 287 280 274 266 260 256 253 252 251 249 246 245 244 245 244 243 241 243 241 244 246 242 244 240 240 238 237 241 241 238
320 318 319 320 315 316 316 316 314 312 314 318 311 303 298 292 285 278 270 264 258 253 248 246 246 248 249 250 252 251 250 247 243 246 246 247 245 246 243 240 239 237 236 239 240
322 319 322 321 319 319 319 319 320 318 318 323 313 309 304 299 290 287 274 266 261 256 253 248 245 247 247 244 244 245 247 247 246 244 245 245 244 245 244 240 238 237 236 237 240
324 321 324 322 320 320 320 321 320 320 320 322 316 312 306 297 294 286 275 274 266 256 253 252 246 241 240 240 240 241 242 244 247 249 249 250 246 243 243 243 239 237 235 237 239
326 325 324 322 322 320 321 322 321 321 319 324 317 313 311 300 301 300 298 285 266 263 260 256 247 245 239 240 240 242 243 243 244 244 246 249 253 248 244 244 243 240 239 237 240
328 326 325 324 323 324 325 323 323 321 317 322 318 316 332 323 319 334 320 320 305 271 257 258 258 262 252 240 236 240 240 241 238 242 245 246 249 247 246 245 243 243 240 239 239
330 327 326 324 324 326 326 325 323 322 323 328 311 315 320 298 311 315 309 314 311 305 271 264 278 281 277 250 238 235 234 237 240 241 242 243 249 246 249 248 248 246 245 243 242
332 329 327 325 327 327 328 325 325 324 320 325 315 328 320 319 326 311 319 317 302 319 252 247 283 277 283 265 238 226 224 235 240 240 244 243 248 250 250 251 251 250 247 244 242
333 331 328 328 329 330 329 327 329 323 320 313 297 359 332 333 336 346 332 335 357 16 322 278 268 279 287 282 247 222 210 220 226 237 243 246 248 248 253 257 251 248 247 246 244
334 333 329 330 331 330 329 328 332 334 330 317 312 347 360 343 347 6 354 21 355 21 337 279 270 303 305 297 224 211 207 217 223 231 240 243 248 252 248 253 257 255 252 248 244
334 335 331 331 332 332 330 330 325 336 330 314 314 346 342 346 343 346 341 319 332 340 331 273 282 308 10 308 211 204 213 222 233 229 250 252 253 259 256 261 256 253 249 245 248
335 337 333 333 335 333 330 330 316 327 325 303 309 328 337 349 339 348 342 315 305 325 317 291 298 302 204 222 261 222 220 213 221 225 242 253 245 254 244 247 238 242 239 239 242
335 338 335 335 336 334 332 328 317 324 308 289 301 322 330 348 338 342 333 324 319 289 282 309 308 318 70 223 219 261 233 227 220 219 238 244 242 249 249 241 245 246 250 249 243
336 339 335 337 336 335 326 328 320 323 300 273 302 305 337 324 331 340 340 341 326 322 320 288 278 309 204 268 216 204 238 249 254 244 237 232 219 208 221 233 237 233 241 236 247
337 338 337 339 337 335 331 331 326 322 292 299 302 313 332 330 319 329 333 337 329 315 306 279 307 332 29 34 32 156 209 217 246 247 258 246 248 246 246 249 250 251 256 252 258
337 339 338 339 340 338 340 343 344 306 305 303 302 310 326 333 316 311 301 308 330 307 302 298 270 260 104 348 60 173 184 209 222 242 256 252 258 262 259 266 266 265 259 270 268
337 337 338 339 341 336 347 346 345 23 348 304 307 302 311 327 323 308 304 304 289 316 310 290 253 267 120 112 102 99 200 204 234 225 261 240 255 255 255 251 248 249 258 263 266
337 337 338 341 340 335 351 16 31 13 344 326 294 306 315 319 318 302 300 301 290 294 294 268 267 252 120 132 140 128 140 200 232 229 248 241 258 260 256 251 253 250 250 258 259
Height
5729 5726 5723 5719 5715 5711 5707 5702 5697 5693 5688 5684 5681 5678 5675 5674 5675 5674 5674 5670 5668 5666 5668 5669 5668 5667 5667 5670 5672 5674 5670 5674 5683 5695 5710 5711 5711 5710 5708 5709 5713 5715 5723 5730 5732
5723 5719 5714 5710 5706 5700 5695 5689 5682 5677 5671 5665 5662 5659 5658 5657 5656 5659 5655 5654 5652 5649 5650 5652 5653 5649 5652 5656 5654 5655 5657 5663 5678 5688 5693 5698 5698 5699 5697 5697 5703 5706 5711 5720 5724
5716 5711 5706 5700 5693 5686 5681 5674 5666 5660 5655 5648 5644 5641 5639 5639 5640 5638 5640 5636 5633 5632 5631 5633 5634 5632 5636 5639 5641 5642 5643 5657 5664 5673 5677 5682 5684 5686 5686 5685 5694 5701 5703 5707 5710
5707 5701 5695 5688 5681 5674 5666 5659 5652 5646 5640 5630 5622 5619 5618 5619 5622 5620 5616 5614 5612 5612 5613 5614 5615 5615 5619 5622 5630 5626 5633 5637 5647 5657 5659 5665 5674 5672 5673 5680 5682 5686 5690 5697 5702
5697 5690 5682 5675 5667 5659 5652 5644 5637 5630 5622 5613 5605 5599 5599 5602 5611 5600 5588 5588 5587 5588 5591 5593 5593 5594 5597 5606 5607 5608 5617 5622 5629 5638 5643 5647 5653 5658 5660 5668 5669 5672 5679 5685 5693
5684 5677 5669 5661 5653 5646 5639 5631 5624 5616 5607 5599 5591 5583 5580 5584 5584 5578 5570 5566 5564 5566 5572 5573 5576 5573 5575 5583 5585 5597 5598 5604 5609 5618 5624 5627 5636 5641 5651 5655 5657 5661 5670 5675 5683
5675 5667 5658 5650 5641 5632 5625 5617 5608 5598 5590 5583 5575 5565 5563 5569 5557 5556 5544 5549 5546 5547 5553 5554 5556 5553 5563 5566 5572 5576 5576 5584 5596 5603 5608 5615 5615 5624 5642 5643 5647 5649 5658 5666 5673
5665 5656 5647 5639 5629 5620 5612 5603 5594 5584 5575 5565 5555 5542 5538 5540 5533 5527 5526 5527 5527 5528 5530 5536 5533 5534 5538 5548 5551 5554 5555 5564 5584 5588 5592 5594 5596 5621 5624 5629 5636 5640 5646 5655 5662
5655 5645 5636 5626 5616 5605 5595 5586 5577 5569 5559 5547 5532 5516 5515 5513 5507 5502 5500 5502 5504 5509 5512 5513 5510 5516 5523 5525 5530 5532 5538 5552 5567 5570 5570 5571 5586 5601 5610 5613 5623 5630 5634 5642 5650
5644 5633 5622 5611 5600 5588 5577 5568 5560 5552 5543 5531 5511 5496 5494 5486 5480 5479 5475 5473 5479 5480 5484 5484 5487 5494 5499 5501 5499 5519 5527 5538 5544 5554 5555 5556 5569 5583 5596 5598 5609 5617 5622 5628 5635
5632 5620 5609 5597 5585 5572 5560 5550 5542 5533 5523 5509 5491 5475 5469 5462 5459 5454 5449 5451 5452 5456 5460 5459 5464 5472 5490 5495 5501 5506 5507 5517 5530 5538 5539 5542 5555 5561 5572 5583 5590 5599 5606 5611 5619
5621 5607 5597 5584 5572 5557 5543 5529 5514 5497 5488 5491 5467 5454 5442 5438 5442 5435 5429 5429 5430 5431 5435 5442 5445 5472 5466 5469 5476 5484 5489 5497 5512 5515 5520 5526 5534 5539 5546 5562 5572 5580 5591 5598 5603
5608 5594 5583 5570 5559 5544 5529 5517 5502 5485 5470 5473 5445 5435 5431 5426 5423 5421 5418 5411 5410 5412 5417 5418 5437 5432 5438 5446 5454 5463 5472 5487 5494 5506 5509 5504 5507 5519 5530 5540 5554 5563 5575 5582 5588
5596 5581 5568 5557 5547 5532 5517 5503 5487 5469 5454 5449 5434 5424 5421 5416 5416 5412 5405 5402 5398 5398 5403 5396 5412 5416 5422 5425 5440 5443 5465 5475 5479 5482 5482 5490 5483 5499 5519 5525 5533 5551 5561 5571 5576
5584 5568 5554 5536 5526 5514 5502 5487 5472 5457 5435 5433 5425 5418 5419 5413 5403 5409 5398 5393 5388 5387 5387 5392 5401 5402 5401 5413 5424 5429 5452 5453 5461 5463 5467 5466 5466 5483 5498 5504 5519 5535 5546 5554 5562
5574 5558 5543 5532 5515 5501 5486 5473 5457 5443 5429 5426 5418 5416 5413 5412 5407 5398 5396 5388 5385 5381 5382 5389 5396 5392 5396 5400 5405 5424 5428 5437 5445 5448 5437 5451 5457 5467 5477 5497 5508 5521 5532 5544 5550
5564 5547 5530 5515 5505 5489 5473 5458 5444 5431 5424 5418 5415 5414 5411 5405 5402 5395 5391 5386 5382 5382 5382 5386 5389 5388 5385 5387 5392 5403 5417 5426 5430 5427 5424 5449 5444 5451 5470 5482 5497 5509 5517 5524 5528
5554 5537 5522 5506 5491 5476 5462 5446 5435 5426 5419 5413 5412 5413 5407 5402 5399 5392 5388 5384 5384 5383 5383 5384 5386 5384 5381 5380 5383 5392 5405 5415 5422 5422 5427 5436 5428 5439 5469 5472 5477 5487 5497 5504 5514
5544 5530 5512 5497 5482 5466 5450 5438 5427 5420 5412 5407 5409 5409 5406 5401 5395 5391 5389 5387 5385 5383 5383 5382 5381 5379 5375 5371 5370 5380 5388 5406 5410 5413 5420 5423 5429 5441 5453 5459 5468 5476 5483 5490 5493
5538 5523 5507 5489 5474 5456 5441 5430 5424 5417 5409 5408 5406 5406 5402 5399 5395 5391 5389 5387 5383 5382 5381 5381 5375 5376 5374 5370 5372 5380 5393 5398 5402 5413 5415 5418 5425 5436 5449 5452 5455 5459 5464 5469 5473
5526 5513 5498 5482 5465 5449 5433 5423 5419 5417 5408 5405 5405 5404 5402 5397 5394 5392 5390 5387 5384 5382 5380 5378 5376 5376 5374 5374 5376 5380 5385 5394 5402 5409 5411 5415 5421 5433 5438 5440 5443 5446 5449 5455 5461
5519 5504 5486 5471 5457 5439 5427 5419 5415 5411 5406 5403 5404 5403 5400 5397 5394 5391 5388 5386 5383 5381 5380 5378 5376 5372 5372 5374 5376 5379 5384 5389 5394 5403 5407 5411 5420 5424 5426 5429 5431 5434 5439 5443 5449
5508 5497 5482 5464 5447 5432 5421 5416 5409 5406 5404 5404 5403 5402 5399 5397 5392 5390 5388 5385 5382 5380 5380 5378 5379 5373 5375 5376 5374 5376 5380 5385 5389 5395 5401 5406 5417 5417 5418 5421 5424 5428 5433 5436 5440
5496 5484 5476 5460 5442 5425 5414 5410 5407 5404 5403 5402 5402 5401 5399 5396 5394 5390 5387 5385 5383 5380 5378 5378 5378 5377 5376 5377 5376 5376 5378 5384 5388 5393 5398 5404 5406 5409 5412 5415 5419 5422 5426 5430 5433
5490 5477 5461 5448 5436 5420 5412 5408 5405 5403 5403 5401 5403 5400 5397 5394 5390 5388 5386 5383 5382 5379 5377 5377 5377 5377 5377 5377 5377 5377 5378 5383 5387 5391 5394 5397 5399 5402 5405 5408 5410 5414 5418 5422 5424
5484 5471 5461 5445 5430 5418 5412 5408 5405 5405 5404 5403 5401 5400 5398 5393 5389 5383 5382 5382 5378 5378 5377 5375 5376 5377 5377 5377 5377 5379 5380 5383 5385 5388 5389 5392 5394 5397 5399 5401 5402 5404 5409 5413 5416
5480 5469 5455 5441 5427 5417 5413 5409 5408 5407 5405 5402 5400 5398 5396 5391 5386 5381 5377 5375 5373 5372 5372 5374 5374 5376 5376 5377 5377 5379 5379 5381 5383 5385 5387 5389 5391 5392 5393 5394 5396 5398 5400 5403 5405